Location: Newark
(45.2500°N, 7.5833°E)
Time: 01:08:34
(UTC+00:00)

A-11 Canister half - Pass Details

Date: 04 February 2020
Orbit: 1524 x 1684 km, 47.3° (Epoch: 21 February)

Event Time Altitude Azimuth Distance (km) Brightness Sun altitude
Rises 18:51:02 0° 287° (WNW) 4,688 12.8 -23.2°
Reaches altitude 10° 18:54:02 10° 287° (WNW) 3,715 12.0 -23.8°
Maximum altitude 19:03:28 85° 201° (SSW) 1,576 8.9 -25.4°
Enters shadow 19:07:27 42° 116° (ESE) 2,143 9.3 -26.1°
